www.pogodaiklimat.ru

Погода и климат >> Архив погоды >> Австралия >> Тасмания >> Остров Маккуори


ПОГОДА на Острове Маккуори

  • Прогноз погоды на Острове Маккуори
  • Монитор погоды на Острове Маккуори

АРХИВ ПОГОДЫ на Острове Маккуори

Время (UTC), дата Ветер
(напр.,м/с)
 
Видим.   Явления Облачность Т
(С)
Тd
(С)
f
(%)
Тe
(С)
Тes
(С)
Комфортность P
(гПа)
Po
(гПа)
Тmin
(С)
Tmax
(С)
R
(мм)
R24
(мм)
S
(см)
17 14.07 ЮЗ 5 н/о н/о +0.7 -4.9 66 -5 -5 989.7 988.7
18 14.07 ЮЗ 4 н/о н/о +0.2 -3.5 76 -5 -5 989.3 988.3
20 14.07 ЮЗ 3 н/о н/о 0.0 -2.1 86 -5 -5 988.9 987.9
21 14.07 ЮЗ 3 н/о н/о -0.1 -2.5 84 -5 -5 988.5 987.5
23 14.07 ЮЗ 5 40 км осадки на расстоянии {ливн. осадки} 8/8 300 м
[Cu Sc]
+0.8 -4.0 70 -5 -4 988.4 987.4
00 15.07 Ю 4 н/о н/о +1.0 -2.7 76 -4 -4 987.9 986.9
02 15.07 З 7 40 км осадки на расстоянии {ливн. осадки} 8/8 300 м
[Cu Sc Ci sp]
+1.1 -2.0 80 -5 -5 986.4 985.4 -0.4
03 15.07 З 9 н/о н/о +0.9 -1.2 86 -7 -7 985.1 984.1
05 15.07 З 6 40 км осадки на расстоянии {ливн. осадки} 9/9 300 м
[Cu Sc]
+0.8 -1.6 84 -5 -5 984.8 983.8
06 15.07 ЮЗ 6 н/о н/о +0.6 -1.5 86 -6 -6 984.3 983.3
08 15.07 З 9 40 км 4/4 300 м
[Cu med, cong Ac trans]
+0.8 -3.8 71 -6 -6 983.5 982.5
09 15.07 З 9 н/о н/о +0.8 -3.5 73 -6 -6 982.8 981.8
11 15.07 З 10 40 км 6/6 600 м
[Cu Sc Ci sp]
+0.3 -3.6 75 -8 -8 982.3 981.3
12 15.07 З 8 н/о н/о +0.4 -3.5 75 -7 -7 981.9 980.9
14 15.07 З 8 н/о н/о +0.4 -3.1 77 -7 -7 981.1 980.1 +1.6
15 15.07 З 10 н/о н/о +0.2 -1.4 89 -8 -8 980.7 979.7
17 15.07 З 10 н/о н/о +0.7 -4.1 70 -7 -7 980.1 979.1
18 15.07 З 9 н/о н/о +0.7 -3.0 76 -7 -7 979.8 978.8
20 15.07 З 9 н/о н/о +0.3 -3.6 75 -7 -7 979.9 978.9
21 15.07 З 11 н/о н/о +0.5 -3.6 74 -8 -8 979.3 978.3
23 15.07 З 10 40 км осадки на расстоянии 9/9 600 м
[Sc]
+1.2 -2.4 77 -6 -6 979.8 978.8
00 16.07 З 13 н/о н/о +1.7 -1.9 77 -7 -7 979.1 978.1
02 16.07 З 12 40 км осадки на расстоянии {ливн. осадки} 8/6 300 м
[Cb cap Ci sp]
+2.0 -1.1 80 -6 -6 979.2 978.2 -0.2
03 16.07 З 12 н/о н/о +1.8 -0.9 82 -6 -6 978.9 977.9
05 16.07 З 10 40 км осадки на расстоянии {ливн. осадки} 9/9 300 м
[Cu med, cong]
+1.8 -1.4 79 -6 -6 979.6 978.6
06 16.07 З 10 н/о н/о +1.8 -0.6 84 -6 -6 979.4 978.4
08 16.07 З 9 8000 м слаб. ливневой снег 8/8 300 м
[Cu med, cong]
+1.5 -0.7 85 -6 -6 980.1 979.1
09 16.07 З 10 н/о н/о +0.9 -1.3 85 -7 -7 980.1 979.1
11 16.07 З 10 8000 м слаб. ливневой снег 6/6 300 м
[Cu med, cong]
+1.6 -1.0 83 -6 -6 979.9 978.9
12 16.07 З 10 н/о н/о +1.5 -0.6 86 -6 -6 979.9 978.9
14 16.07 ЮЗ 6 н/о н/о +1.4 -1.0 84 -5 -5 980.6 979.6 +2.4
15 16.07 ЮЗ 6 н/о н/о +1.5 -1.1 83 -5 -5 980.4 979.4
17 16.07 ЮЗ 6 н/о н/о +1.4 -1.8 79 -5 -5 981.1 980.1
18 16.07 ЮЗ 7 н/о н/о +1.5 -1.2 82 -5 -5 981.1 980.1
20 16.07 ЮЗ 5 н/о {туман} н/о +1.5 -0.9 84 -4 -4 982.0 981.0
21 16.07 ЮЗ 7 н/о н/о +1.0 -2.1 80 -6 -6 982.6 981.6
23 16.07 З 8 40 км осадки на расстоянии {ливн. осадки} 6/6 300 м
[Cu Sc]
+1.2 -1.2 84 -6 -6 983.5 982.5
00 17.07 З 6 н/о н/о +2.1 -0.8 81 -4 -4 983.6 982.6
03 17.07 З 7 н/о н/о +1.8 -0.6 84 -5 -5 983.7 982.7
05 17.07 З 7 30 км осадки на расстоянии {ливн. осадки} 6/6 100 м
[Cu med, cong]
+1.2 -1.0 85 -5 -5 984.3 983.3
06 17.07 СЗ 8 н/о н/о +0.8 -0.5 91 -7 -7 984.3 983.3
08 17.07 СЗ 6 40 км осадки на расстоянии {ливн. осадки} 9/9 200 м
[Cu Sc]
+1.4 -3.3 71 -5 -5 984.8 983.8
09 17.07 СЗ 6 н/о н/о +1.3 -3.0 73 -5 -5 985.0 984.0
11 17.07 З 6 40 км 9/9 300 м
[Cu Sc]
+1.3 -3.4 71 -5 -5 985.4 984.4
12 17.07 СЗ 5 н/о н/о +1.5 -3.6 69 -4 -4 985.3 984.3
14 17.07 СЗ 5 н/о н/о +1.7 -2.6 73 -4 -4 985.5 984.5 +2.8
15 17.07 СЗ 4 н/о н/о +1.9 -2.6 72 -3 -3 985.4 984.4
17 17.07 СЗ 2 н/о н/о +0.9 -0.7 89 -2 -2 985.6 984.6 0.8
18 17.07 З 1 н/о н/о +0.9 -0.5 90 -1 -1 985.2 984.2
20 17.07 ЮВ 3 н/о {осадки} н/о +1.6 +0.3 91 -2 -2 985.8 984.8
21 17.07 ЮВ 2 н/о н/о +1.9 +0.6 91 -1 -1 986.1 985.1
23 17.07 С 2 н/о {осадки} н/о +2.3 +1.4 94 -1 -1 987.3 986.3 1
00 18.07 СЗ 5 н/о н/о +2.8 +2.2 96 -3 -3 987.3 986.3
02 18.07 СЗ 7 15 км в посл. час туман 9/8 300 м
[Cu med, cong Cc]
+3.5 +2.6 94 -3 -2 987.3 986.3 +0.4
03 18.07 З 7 н/о н/о +3.8 +2.2 89 -2 -2 987.4 986.4
05 18.07 СЗ 7 20 км 9/8 300 м
[Cu med, cong Cc]
+4.0 +2.5 90 -2 -2 988.5 987.5
06 18.07 СЗ 8 н/о н/о +3.9 +2.9 93 -3 -3 988.7 987.7
08 18.07 З 6 20 км 8/8 300 м
[St Cc]
+4.0 +2.7 91 -2 -2 990.1 989.1
09 18.07 З 7 н/о н/о +4.2 +2.7 90 -2 -2 990.4 989.4
11 18.07 СЗ 7 20 км 9/9 300 м
[Cu Sc]
+4.6 +3.7 94 -1 -1 991.7 990.7
12 18.07 З 8 н/о н/о +4.5 +3.3 92 -2 -2 991.7 990.7
14 18.07 СЗ 9 н/о н/о +4.7 +2.9 88 -2 -2 992.7 991.7 +4.9
15 18.07 СЗ 8 н/о н/о +4.8 +3.3 90 -1 -1 992.9 991.9
17 18.07 СЗ 9 н/о н/о +4.9 +3.9 93 -1 -1 993.5 992.5
18 18.07 СЗ 8 н/о н/о +5.0 +4.0 93 -1 -1 993.2 992.2
20 18.07 С 8 н/о н/о +5.3 +3.6 89 -1 -1 993.2 992.2
21 18.07 С 11 н/о н/о +5.4 +3.3 86 -1 -1 993.1 992.1
23 18.07 С 15 20 км 9/9 200 м
[Sc]
+5.4 +4.2 92 -2 -2 993.1 992.1
00 19.07 С 14 н/о н/о +5.5 +4.6 94 -2 -2 992.8 991.8
02 19.07 СЗ 10 25 км осадки на расстоянии 9/3 300 м
[Sc Ac As]
+5.0 +3.2 88 -1 -1 994.4 993.4 +2.8
03 19.07 СЗ 9 н/о н/о +5.5 +3.7 88 -1 -1 994.8 993.8
05 19.07 СЗ 8 25 км 9/1 300 м
[Sc Ac As Ci fib]
+5.2 +2.7 84 -1 -1 997.2 996.2
06 19.07 СЗ 6 н/о н/о +5.0 +3.2 88 -0 -0 998.0 997.0
08 19.07 СЗ 7 40 км 3/1 300 м
[St Ci fib]
+4.9 +3.6 91 -1 -1 999.8 998.8
09 19.07 СЗ 7 н/о н/о +4.8 +3.6 92 -1 -1 1000.6 999.5
11 19.07 СЗ 7 30 км 1/1 600 м
[Sc]
+4.9 +3.9 93 -1 -1 1002.7 1001.7
12 19.07 С 8 н/о н/о +4.9 +3.9 93 -1 -1 1003.0 1001.9
14 19.07 С 9 н/о н/о +5.2 +3.9 91 -1 -1 1004.3 1003.3 +5.9
15 19.07 СЗ 8 н/о н/о +5.1 +3.9 92 -1 -1 1004.6 1003.5
17 19.07 СЗ 9 н/о н/о +5.2 +4.3 94 -1 -1 1005.7 1004.7
18 19.07 С 9 н/о н/о +5.1 +4.2 94 -1 -1 1005.6 1004.5
20 19.07 С 9 н/о н/о +5.3 +4.3 93 -1 -1 1006.3 1005.3
21 19.07 С 9 н/о н/о +5.4 +4.4 93 -1 -1 1006.8 1005.7
23 19.07 С 12 35 км 4/1 300 м
[St Ac trans Ci fib]
+5.7 +4.2 90 -1 -1 1007.9 1006.9
00 20.07 С 11 н/о н/о +6.0 +4.5 90 -1 -1 1008.0 1006.9
02 20.07 С 10 35 км 9/8 300 м
[Sc Ac trans]
+6.2 +4.7 90 0 0 1007.8 1006.8 +4.5
03 20.07 С 10 н/о н/о +6.1 +4.7 91 -0 -0 1007.5 1006.4
05 20.07 СЗ 10 3500 м дымка 9/9 100 м
[Sc]
+5.8 +5.1 95 -1 -1 1008.2 1007.2
06 20.07 С 11 н/о н/о +5.7 +4.8 94 -1 -1 1008.3 1007.2
08 20.07 С 11 3500 м дымка 10/10 100 м
[Sc]
+5.7 +5.1 96 -1 -1 1009.0 1008.0
09 20.07 С 12 н/о н/о +5.6 +5.2 97 -1 -1 1009.2 1008.1
11 20.07 С 12 3500 м дымка 10/10 100 м
[Sc]
+5.5 +5.1 97 -2 -2 1009.7 1008.7
12 20.07 С 12 н/о н/о +5.5 +5.1 97 -2 -2 1009.6 1008.5
14 20.07 С 13 н/о н/о +5.5 +5.1 97 -2 -2 1009.7 1008.7 +6.5
15 20.07 С 13 н/о н/о +5.6 +5.2 97 -2 -2 1009.4 1008.3
17 20.07 С 13 н/о н/о +5.4 +5.1 98 -2 -2 1009.7 1008.7
18 20.07 С 13 н/о н/о +5.5 +5.2 98 -2 -2 1009.6 1008.5
20 20.07 С 11 н/о н/о +5.6 +5.3 98 -1 -1 1010.1 1009.1
21 20.07 С 10 н/о н/о +5.7 +5.3 97 -1 -1 1010.4 1009.3
23 20.07 С 11 4000 м дымка 10/10 100 м
[Sc]
+5.6 +5.2 97 -1 -1 1011.4 1010.4
00 21.07 С 10 н/о н/о +5.7 +5.3 97 -1 -1 1011.4 1010.3
02 21.07 С 9 500 м туман ?/? +5.5 +5.2 98 -1 -1 1011.4 1010.4 +5.4
03 21.07 С 9 н/о н/о +5.3 +5.0 98 -1 -1 1011.1 1010.0
05 21.07 С 10 600 м туман ?/? +5.1 +4.8 98 -2 -2 1011.5 1010.5
06 21.07 С 7 н/о н/о +5.0 +4.7 98 -1 -1 1011.5 1010.4
08 21.07 С 8 3000 м дымка {туман} 10/10 100 м
[St]
+5.3 +5.0 98 -1 -1 1011.8 1010.8
09 21.07 С 8 н/о н/о +5.6 +5.3 98 -0 -0 1011.5 1010.4
11 21.07 С 8 3000 м дымка 10/10 100 м
[Sc]
+5.0 +4.7 98 -1 -1 1011.8 1010.8
12 21.07 С 9 н/о н/о +5.1 +3.9 92 -1 -1 1011.1 1010.0
14 21.07 С 8 н/о н/о +5.0 +4.4 96 -1 -1 1010.4 1009.4 +5.9
15 21.07 С 9 н/о н/о +4.8 +4.4 97 -2 -2 1009.9 1008.8

 

Местоположение метеостанции Остров Маккуори (Тасмания, Австралия): широта -54.50 долгота 158.95 высота над уровнем моря 8 м.

В архиве по умолчанию представлена погода на Острове Маккуори за последнюю неделю. Архивные данные за месяц целиком и за предыдущие месяцы, начиная с января 2011 года, Вы можете получить, выбрав интересующий диапазон дат из раскрывающегося списка и нажав кнопку "Ввод!".


*Определитесь, кто Вы:
робот инопланетянин человек

Внимание! Время в таблицах - всемирное. Для получения местного времени необходимо прибавить поправку, которая равна 10 ч.

Смотрите также архив погоды в соседних городах и на ближайших метеорологических станциях:

Погода на Острове Эндерби (Новая Зеландия) (668 км)
Погода на Острове Кэмпбелл (Новая Зеландия) (708 км)
Погода на Мысе Юго-западный (Новая Зеландия) (1001 км)
Погода на Маяке Puysegur Point (Новая Зеландия) (1075 км)
Погода в Инверкаргилле (Новая Зеландия) (1116 км)
Погода на Острове Секретари (Новая Зеландия) (1178 км)
Погода в Данидине (Новая Зеландия) (1243 км)
Погода в Квинстауне (Новая Зеландия) (1266 км)
Погода в Тара Хилс (Новая Зеландия) (1358 км)
Погода в Хаасте (Новая Зеландия) (1388 км)

Пояснения к столбцам:

Ветер - указаны скорость ветра в м/с - средняя за 10 мин, порывы в срок и между сроками (в фигурных скобках) и направление, откуда дует ветер: С - северный, СВ - северо-восточный, В - восточный, ЮВ - юго-восточный, Ю - южный, ЮЗ - юго-западный, З - западный, СЗ - северо-западный.
Видимость - горизонтальная дальность видимости в метрах или километрах. При видимости от 1 до 10 км при отсутствии осадков обычно наблюдается дымка, при ухудшении видимости до 1 км и менее - туман. В сухую погоду видимость может ухудшаться дымом, пылью или мглою.
Явления - указаны атмосферные явления, наблюдавшиеся в срок или в последний час перед сроком; фигурными скобками обозначены явления, наблюдавшиеся между сроками (за 1-3 часа до срока); квадратными скобками обозначены град или гололедные отложения с указанием их диаметра в мм.
Облачность - указаны через наклонную черту общая и нижняя облачность в баллах и высота нижней границы облаков в метрах; квадратными скобками обозначены формы облаков: Ci - перистые, Cs - перисто-слоистые, Cc - перисто-кучевые, Ac - высококучевые, As - высокослоистые, Sc - слоисто-кучевые, Ns - слоисто-дождевые, Cu - кучевые, Cb - кучево-дождевые. Подробнее классификацию облаков см. в Атласе облаков (PDF).
T - Температура воздуха - температура, измеренная на высоте 2 м над землей.
Td - Температура точки росы - температура, при понижении до которой содержащийся в воздухе водяной пар достигнет насыщения.
f - Относительная влажность воздуха - влажноcть воздуха, измеренная на высоте 2 м над землей.
Te - Эффективная температура - температура, которую ощущает одетый по сезону человек в тени. Характеристика душности погоды. При расчете учитывается влияние влажности воздуха и скорости ветра на теплоощущения человека.
Tes - Эффективная температура на солнце - температура, которую ощущает человек, с поправкой на солнечный нагрев. Характеристика знойности погоды. Зависит от высоты солнца над горизонтом, облачности и скорости ветра. Ночью, в пасмурную погоду, а также при ветре 12 м/с и более поправка равна нулю.
P - Атмосферное давление - приведенное к уровню моря атмосферное давление.
Po - Атмосферное давление - измеренное на уровне метеостанции атмосферное давление.
Tmin - Минимальная температура - минимум температуры воздуха на высоте 2 м над землей.
Tmax - Максимальная температура - максимум температуры воздуха на высоте 2 м над землей.
R - Количество осадков - Количество выпавших осадков за период времени, мм. При наведении курсора мыши на число - период времени, за который выпало указанное количество осадков.
R24 - Количество осадков - Количество выпавших осадков за 24 часа, мм.
S - Снежный покров - Высота снежного покрова, см. При наведении курсора мыши на число - состояние снежного покрова и степень покрытия местности в баллах.